Hourly Data Report for October 02, 2017

All times are specified in Local Standard Time (LST). Add 1 hour to adjust for Daylight Saving Time where and when it is observed.

FLIN FLON
MANITOBA

54°41'00.000" N
101°41'00.000" W
303.90 m
5050919
71954
WFO

Download Data

Hourly Data (October 2017)
Hourly Data Report for October 2, 2017
Temp Definition
°C
Dew Point Temp Definition
°C
Rel Hum Definition
%
Wind Dir Definition
10's deg

Wind Spd Definition
km/h
Visibility Definition
km
Stn Press Definition
kPa
Hmdx Definition


Wind Chill Definition


Weather Definition


TIME
00:00 13.4 12.3 93 3 4   96.76     LegendNANA
01:00 13.2 12.0 93 4 5   96.75     LegendNANA
02:00 12.9 11.7 92 6 5   96.73     LegendNANA
03:00 12.9 11.6 92 4 4   96.75     LegendNANA
04:00 12.7 11.5 92 5 5   96.78     LegendNANA
05:00 12.4 11.2 93 5 5   96.81     LegendNANA
06:00 12.3 11.2 93 2 8   96.84     LegendNANA
07:00 12.5 11.3 93 1 11   96.80     LegendNANA
08:00 12.8 11.4 91 2 14   96.85     LegendNANA
09:00 13.0 11.4 90 2 14   96.89     LegendNANA
10:00 12.9 11.7 92 2 14   96.90     LegendNANA
11:00 12.6 11.4 92 2 18   96.92     LegendNANA
12:00 12.1 10.6 91 1 20   96.95     LegendNANA
13:00 11.4 10.1 92 2 21   96.97     LegendNANA
14:00 10.8 9.5 92 2 25   96.99     LegendNANA
15:00 9.9 8.5 91 2 26   97.05     LegendNANA
16:00 9.2 7.6 90 1 30   97.11     LegendNANA
17:00 7.4 5.8 90 2 30   97.19     LegendNANA
18:00 6.8 5.3 90 1 27   97.32     LegendNANA
19:00 6.0 4.1 88 1 32   97.41     LegendNANA
20:00 5.5 3.5 87 2 29   97.52     LegendNANA
21:00 5.1 2.9 86 2 29   97.65     LegendNANA
22:00 4.6 1.9 83 2 31   97.79     LegendNANA
23:00 3.8 2.1 88 2 33   97.88     LegendNANA

Notes on Data Quality.

Legend

  • E = Estimated
  • M = Missing
  • NA = Not Available
  • ‡ = Partner data that is not subject to review by the National Climate Archives
Date modified: